Location: Mentone
(34.5413°N, 85.5351°W)
Time: 08:45:02
(UTC-05:00)

S-56A Canister/Altair - Visible Passes

Search period start: 21 June 2018 00:00
Search period end: 01 July 2018 00:00
Orbit: 633 x 2500 km, 38.9° (Epoch: 20 June)

Date Brightness Start Highest point End Pass type
(mag) Time Alt. Az. Time Alt. Az. Time Alt. Az.
28 Jun 11.4 04:46:27 10° SSE 04:54:50 18° SE 05:03:19 10° E visible
29 Jun 11.5 04:15:10 10° SSE 04:21:44 14° SE 04:28:29 10° E visible
30 Jun 11.6 03:45:08 10° SE 03:48:42 11° SE 03:52:21 10° ESE visible
